[Iaude] MPEC U10: 2023 TS15 [a=1.28,e=0.21,i=6.7,H=25.5]

mpec at marsden.cfa.harvard.edu mpec at marsden.cfa.harvard.edu
Mon Oct 16 09:27:39 EDT 2023


M.P.E.C. 2023-U10                              Issued 2023 October 16, 13:26 UT

     The Minor Planet Electronic Circulars contain information on unusual
         minor planets, routine data on comets and natural satellites,
         and occasional editorial announcements.  They are published
    on behalf of Division F of the International Astronomical Union by the
          Minor Planet Center, Smithsonian Astrophysical Observatory,
                          Cambridge, MA 02138, U.S.A.
			  
             Prepared using the Tamkin Foundation Computer Network

                              MPC at CFA.HARVARD.EDU
            URL https://www.minorplanetcenter.net/    ISSN 1523-6714

                                   2023 TS15                                    


Observations:
     K23T15S 1C2023 10 09.39550 02 36 25.63 +34 57 33.2          21.6 GVEU010G96
     K23T15S 1C2023 10 09.40114 02 36 25.51 +34 57 03.0          21.4 GVEU010G96
     K23T15S 1C2023 10 09.40676 02 36 25.34 +34 56 32.0          21.9 GVEU010G96
     K23T15S* C2023 10 14.37972002 35 57.271+27 49 48.00         21.94GVEU010V00
     K23T15S  C2023 10 14.38524402 35 57.026+27 49 21.14         22.05GVEU010V00
     K23T15S  C2023 10 14.39074002 35 56.749+27 48 54.11         21.68GVEU010V00
     K23T15S  C2023 10 14.39624502 35 56.490+27 48 27.14         21.25GVEU010V00
     K23T15S mC2023 10 14.47758602 35 52.980+27 41 42.47         21.25GVEU010V00
     K23T15S mC2023 10 14.47837502 35 52.966+27 41 38.47         20.79GVEU010V00
     K23T15S mC2023 10 14.47915902 35 52.912+27 41 34.33         21.86GVEU010V00
     K23T15S  C2023 10 16.31798902 35 26.408+25 15 57.13         22.43GVEU010V00
     K23T15S  C2023 10 16.32349602 35 26.135+25 15 31.82         22.35GVEU010V00
     K23T15S  C2023 10 16.32899802 35 25.854+25 15 06.41         21.90GVEU010V00
     K23T15S  C2023 10 16.33450002 35 25.577+25 14 40.88         21.72GVEU010V00

Observer details:
G96 Mt. Lemmon Survey.  Observer K. W. Wierzchos.  Measurers B. Gray, D.
    Rankin, F. C. Shelly.  1.5-m reflector + 10K CCD.
V00 Kitt Peak-Bok.  Observer H. Groeller.  Measurers M. J. Brucker, C. E.
    Woodward, D. Fay, J. B. Fazekas, D. C. Fuls, A. R. Gibbs, H. Groeller, J.
    K. Hogan, R. A. Kowalski, S. M. Larson, C. Lejoly, G. J. Leonard, R. A.
    Mastaler, R. S. McMillan, D. Rankin, R. L. Seaman, A. Serrano, F. C.
    Shelly, K. W. Wierzchos.  2.25-m reflector + 4x4K mosaic CCD.

Orbital elements:
2023 TS15                                                Earth MOID = 0.0723 AU
Epoch 2023 Sept. 13.0 TT = JDT 2460200.5                Veres                   
M  16.42623              (2000.0)            P               Q                  
n   0.67818040     Peri.  113.60304     +0.82818492     +0.55687532             
a   1.2830371      Node   212.65962     -0.54739639     +0.77950511             
e   0.2148456      Incl.    6.73010     -0.12027860     +0.28681294             
P   1.45           H   25.51          G   0.15           U   9                  
Residuals in seconds of arc
231009 G96  0.6-  0.2-    231014 V00  0.1-  0.1+    231016 V00  0.1+  0.0
231009 G96  0.2+  0.3+    231014 V00  0.2-  0.3+    231016 V00  0.1+  0.1+
231009 G96  0.4+  0.1-    231014 V00  0.3-  0.1+    231016 V00  0.0   0.0
231014 V00  0.1-  0.2-    231014 V00  0.1-  0.0     231016 V00  0.0   0.1-
231014 V00  0.1+  0.1+    231014 V00  0.4-  0.2-

Ephemeris:
2023 TS15                a,e,i = 1.28, 0.21, 7                   q = 1.0074
Date    TT    R. A. (2000) Decl.     Delta      r    Elong.  Phase     V
2023 09 16    01 39 59.4 +71 04 07   0.09052 1.0299   103.1    72.0    22.9
...
2023 10 01    02 32 02.6 +48 06 47   0.09175 1.0596   127.4    48.7    22.3
...
2023 10 09    02 36 24.5 +35 33 11   0.09901 1.0793   142.4    34.4    22.1
...
2023 10 15    02 35 48.6 +26 59 55   0.1083  1.0955   153.7    23.8    22.0
2023 10 16    02 35 31.4 +25 40 52   0.1102  1.0984   155.5    22.1    22.0
2023 10 17    02 35 11.9 +24 23 56   0.1122  1.1012   157.3    20.5    22.0
...
2023 10 23    02 32 45.6 +17 29 51   0.1263  1.1188   167.4    11.2    22.0
...
2023 10 31    02 29 15.3 +10 28 26   0.1508  1.1434   175.7     3.7    22.0
...
2023 11 15    02 25 26.5 +03 03 41   0.2134  1.1921   160.0    16.5    23.4

M. P. C. Staff               (C) Copyright 2023 MPC           M.P.E.C. 2023-U10




More information about the Iaude mailing list